Погода в Джафне

Шри-Ланка     9°39′36″N   80°01′14″E
темп.,
°C
ветер,
м/с
пор.,
м/с
влажн.,
%
обл.,
%
осадки,
мм/ч
давл.,
гПа
погр.,
м
24 мая, вт
вт2423:30+29ю101285100 0.9 1005551
02:30+28ююз91186100 0.3 1004585
05:30+28ююз9108597 0.3 1005632
08:30+29ююз8980100 0.0 1007776
11:30+30ююз897593 0.0 1008893
14:30+30ююз9107534 0.0 1006855
17:30+29ююз101381100 0.0 1006668
20:30+28ююз12168499 0.0 1007737
25 мая, ср
ср2523:30+28ююз101383100 0.0 1009737
02:30+28ююз91281100 0.0 1006644
05:30+28ююз81079100 0.0 1007770
08:30+29юз7875100 0.0 1009809
11:30+30ююз897231 0.0 1009909
14:30+30ююз9107477 0.0 1007907
17:30+29ююз1013803 0.0 1007680
20:30+28ююз1013834 0.0 1008731
26 мая, чт
чт2623:30+28ююз1115835 0.0 1008773
02:30+28ююз101281100 0.0 1007888
05:30+28ююз91280100 0.0 1008864
08:30+29ююз101277100 0.0 1009803
11:30+30ююз101176100 0.0 1008893
14:30+29ююз101275100 0.0 1006785
17:30+28ююз11148199 0.0 1006714
20:30+28ююз1216845 0.0 1007787
27 мая, пт
пт2723:30+28ююз10158387 0.0 1008840
02:30+28юз10128245 0.0 1007868
05:30+28юз9108024 0.0 1007841
08:30+29юз997656 0.0 1009859
11:30+30ююз10117499 0.0 1008878
14:30+29ююз910745 0.0 1006819
17:30+29ююз1013816 0.0 1005665
20:30+28ююз1115835 0.0 1007737
28 мая, сб
сб2823:30+28юз9128361 0.0 1008903
02:30+28ююз101182100 0.1 1006746
05:30+28юз9118254 0.1 1006807
08:30+29юз897513 0.0 1008866
11:30+30юз910739 0.0 1008949
14:30+30ююз9117485 0.0 1005842
17:30+29ююз1013824 0.0 1005669
20:30+28ююз1115843 0.0 1007732